This is the latest recevied weather packets stored in our database for station/object HB9TJM-8. If no packets are shown the sender has not sent any weather packets the latest 10 day(s).
| Time | Temp. | Humidity | Pressure | Rain* | Wind** | Luminosity | Snow |
|---|---|---|---|---|---|---|---|
| 1776998268 | 8.89° C | 42% | 1021.4 hPa | 0 mm | - | 0 W/m² | - |
| 1776997961 | 8.89° C | 41% | 1021.4 hPa | 0 mm | - | 0 W/m² | - |
| 1776997653 | 8.89° C | 41% | 1021.2 hPa | 0 mm | - | 0 W/m² | - |
| 1776997346 | 8.89° C | 40% | 1021.3 hPa | 0 mm | - | 0 W/m² | - |
| 1776997038 | 8.89° C | 40% | 1021.6 hPa | 0 mm | - | 0 W/m² | - |
| 1776996731 | 8.89° C | 41% | 1021.5 hPa | 0 mm | - | 0 W/m² | - |
| 1776996423 | 8.89° C | 40% | 1021.5 hPa | 0 mm | - | 0 W/m² | - |
| 1776996116 | 8.89° C | 39% | 1021.3 hPa | 0 mm | - | 0 W/m² | - |
| 1776995809 | 8.89° C | 40% | 1021.4 hPa | 0 mm | - | 0 W/m² | - |
| 1776995501 | 8.89° C | 40% | 1021.2 hPa | 0 mm | - | 0 W/m² | - |
| 1776995194 | 8.89° C | 39% | 1021.2 hPa | 0 mm | - | 0 W/m² | - |
| 1776994887 | 9.44° C | 39% | 1021.3 hPa | 0 mm | - | 0 W/m² | - |
| 1776994887 | 9.44° C | 39% | 1021.3 hPa | 0 mm | - | 0 W/m² | - |
| 1776994579 | 9.44° C | 39% | 1021.5 hPa | 0 mm | - | 0 W/m² | - |
| 1776994271 | 9.44° C | 39% | 1021.9 hPa | 0 mm | - | 0 W/m² | - |
| 1776993655 | 10° C | 37% | 1021.6 hPa | 0 mm | - | 0 W/m² | - |
| 1776993348 | 10° C | 36% | 1021.4 hPa | 0 mm | - | 0 W/m² | - |
| 1776993041 | 10° C | 38% | 1021.4 hPa | 0 mm | - | 0 W/m² | - |
| 1776992733 | 10° C | 38% | 1021.6 hPa | 0 mm | - | 0 W/m² | - |
| 1776992426 | 9.44° C | 41% | 1021.5 hPa | 0 mm | - | 0 W/m² | - |
| 1776992426 | 9.44° C | 41% | 1021.5 hPa | 0 mm | - | 0 W/m² | - |
| 1776992118 | 9.44° C | 41% | 1021.3 hPa | 0 mm | - | 0 W/m² | - |
| 1776991811 | 10° C | 40% | 1021.4 hPa | 0 mm | - | 0 W/m² | - |
| 1776991504 | 10° C | 40% | 1021.3 hPa | 0 mm | - | 0 W/m² | - |
| 1776991197 | 10° C | 39% | 1021.5 hPa | 0 mm | - | 0 W/m² | - |
* Rain latest hour (hover to see other rain measurements)
** Current wind speed in m/s (hover to see current wind gust speed)